Weather History for Newport Airport, OR

Change the Weather History Date:

Tuesday, January 7, 2014

  Actual Average Record
Temperature  
Mean Temperature 46 °F -  
Max Temperature 50 °F 48 °F 62 °F (2015)
Min Temperature 42 °F 40 °F 35 °F (2005)
Degree Days  
Heating Degree Days 19    
Moisture  
Dew Point 44 °F    
Average Humidity 95    
Maximum Humidity 100    
Minimum Humidity 76    
Precipitation  
Precipitation 0.40 in - - ()
Sea Level Pressure  
Sea Level Pressure 30.09 in    
Wind  
Wind Speed 11 mph (SSE)    
Max Wind Speed 23 mph    
Max Gust Speed 29 mph    
Visibility 6 miles    
Events Rain    
Averages and records for this station are not official NWS values.
T = Trace of Precipitation, MM = Missing Value Source: NWS Daily Summary

Daily Weather History Graph

Daily Weather History Graph

Search for Another Location

Airport:

Trip Planner

Search our weather history database for the weather conditions in past years. The results will help you decide how hot, cold, wet, or windy it might be!

Date:

Astronomy

Jan. 07, 2014 Rise Set
Actual Time 7:52 AM PST 4:53 PM PST
Civil Twilight 7:19 AM PST 5:26 PM PST
Nautical Twilight 6:42 AM PST 6:02 PM PST
Astronomical Twilight 6:07 AM PST 6:37 PM PST
Moon 11:26 AM PST (1/7) No Moon Set
Length of Visible Light 10h 06m
Length of Day
9h 00m
Waxing Crescent, 46% of the Moon is Illuminated
Jan 7
Waxing Crescent
Jan 7
First Quarter
Jan 15
Full
Jan 23
Last Quarter
Jan 30
New

Hourly Weather History & Observations

Time (PST) Temp. Windchill Dew Point Humidity Pressure Visibility Wind Dir Wind Speed Gust Speed Precip Events Conditions
12:15 AM 42.8 °F 37.5 °F 41.0 °F 93% 30.16 in 10.0 mi East 9.2 mph - N/A   Overcast
12:35 AM 42.8 °F 37.0 °F 42.8 °F 100% 30.14 in 10.0 mi East 10.4 mph - N/A   Overcast
12:55 AM 42.8 °F 37.0 °F 42.8 °F 100% 30.14 in 10.0 mi East 10.4 mph - N/A   Overcast
1:15 AM 42.8 °F 37.0 °F 42.8 °F 100% 30.13 in 10.0 mi East 10.4 mph - N/A   Overcast
1:35 AM 42.8 °F 37.5 °F 42.8 °F 100% 30.13 in 10.0 mi East 9.2 mph - N/A   Overcast
1:55 AM 42.8 °F 39.3 °F 42.8 °F 100% 30.14 in 10.0 mi East 5.8 mph - N/A   Light Drizzle
2:15 AM 44.6 °F 42.2 °F 42.8 °F 93% 30.14 in 10.0 mi East 4.6 mph - N/A   Overcast
2:35 AM 44.6 °F 39.7 °F 42.8 °F 93% 30.14 in 10.0 mi East 9.2 mph - N/A Rain Light Rain
2:55 AM 44.6 °F 42.2 °F 42.8 °F 93% 30.14 in 10.0 mi NE 4.6 mph - N/A   Overcast
3:15 AM 44.6 °F 38.8 °F 42.8 °F 93% 30.13 in 10.0 mi East 11.5 mph - N/A   Overcast
3:35 AM 44.6 °F 39.2 °F 42.8 °F 93% 30.12 in 10.0 mi East 10.4 mph - N/A   Overcast
3:55 AM 44.6 °F 39.2 °F 42.8 °F 93% 30.11 in 10.0 mi East 10.4 mph - N/A   Overcast
4:15 AM 44.6 °F 39.2 °F 42.8 °F 93% 30.11 in 10.0 mi ESE 10.4 mph - N/A   Overcast
4:35 AM 44.6 °F 39.7 °F 42.8 °F 93% 30.11 in 10.0 mi ESE 9.2 mph - N/A   Overcast
4:55 AM 44.6 °F 40.7 °F 42.8 °F 93% 30.11 in 10.0 mi ESE 6.9 mph - N/A   Overcast
5:15 AM 44.6 °F 42.2 °F 42.8 °F 93% 30.10 in 10.0 mi ESE 4.6 mph - N/A   Overcast
5:35 AM 44.6 °F 41.4 °F 42.8 °F 93% 30.10 in 10.0 mi ESE 5.8 mph - N/A   Overcast
5:55 AM 44.6 °F 40.7 °F 42.8 °F 93% 30.09 in 10.0 mi ESE 6.9 mph - N/A   Overcast
6:15 AM 44.6 °F 41.4 °F 42.8 °F 93% 30.09 in 10.0 mi East 5.8 mph - N/A   Overcast
6:35 AM 44.6 °F 40.2 °F 42.8 °F 93% 30.08 in 10.0 mi ESE 8.1 mph - N/A   Overcast
6:55 AM 44.6 °F 40.7 °F 42.8 °F 93% 30.08 in 10.0 mi East 6.9 mph - N/A   Overcast
7:15 AM 44.6 °F 43.1 °F 42.8 °F 93% 30.08 in 10.0 mi SE 3.5 mph - N/A   Overcast
7:35 AM 46.4 °F 45.2 °F 41.0 °F 81% 30.08 in 10.0 mi SSE 3.5 mph - N/A   Overcast
7:55 AM 44.6 °F 42.2 °F 41.0 °F 87% 30.08 in 10.0 mi ESE 4.6 mph - N/A   Overcast
8:15 AM 44.6 °F 41.4 °F 42.8 °F 93% 30.08 in 10.0 mi ESE 5.8 mph - N/A   Overcast
8:35 AM 44.6 °F 42.2 °F 42.8 °F 93% 30.08 in 10.0 mi SE 4.6 mph - N/A   Overcast
8:55 AM 46.4 °F 43.5 °F 41.0 °F 81% 30.08 in 10.0 mi ESE 5.8 mph - N/A   Overcast
9:15 AM 46.4 °F 45.2 °F 42.8 °F 87% 30.08 in 10.0 mi SE 3.5 mph - N/A   Overcast
9:35 AM 46.4 °F 43.5 °F 42.8 °F 87% 30.09 in 10.0 mi South 5.8 mph - 0.01 in Rain Light Rain
9:55 AM 50.0 °F - 42.8 °F 76% 30.11 in 10.0 mi SSW 11.5 mph - 0.01 in   Overcast
10:15 AM 50.0 °F - 42.8 °F 76% 30.11 in 10.0 mi South 13.8 mph 18.4 mph N/A   Overcast
10:35 AM 50.0 °F - 44.6 °F 82% 30.10 in 7.0 mi South 12.7 mph 20.7 mph N/A Rain Rain
10:55 AM 48.2 °F - 44.6 °F 87% 30.09 in 7.0 mi SSE 8.1 mph - 0.03 in Rain Rain
11:15 AM 48.2 °F - 44.6 °F 87% 30.08 in 5.0 mi SSE 8.1 mph - 0.02 in Rain Rain
11:35 AM 46.4 °F 42.4 °F 44.6 °F 93% 30.08 in 2.5 mi South 8.1 mph - 0.04 in Rain Rain
11:55 AM 46.4 °F 42.9 °F 44.6 °F 93% 30.08 in 5.0 mi South 6.9 mph 19.6 mph 0.07 in Rain Rain
12:15 PM 46.4 °F 40.4 °F 44.6 °F 93% 30.07 in 3.0 mi South 13.8 mph 23.0 mph 0.05 in Rain Rain
12:35 PM 46.4 °F 38.3 °F 44.6 °F 93% 30.07 in 2.0 mi South 23.0 mph 27.6 mph 0.13 in Rain Rain
12:55 PM 46.4 °F 38.5 °F 44.6 °F 93% 30.06 in 4.0 mi South 21.9 mph 27.6 mph 0.16 in Rain Light Rain
1:15 PM 46.4 °F 39.2 °F 44.6 °F 93% 30.06 in 2.5 mi South 18.4 mph 28.8 mph N/A Rain Light Rain
1:35 PM 46.4 °F 40.1 °F 44.6 °F 93% 30.06 in 1.8 mi South 15.0 mph 25.3 mph 0.01 in Rain Light Rain
1:55 PM 46.4 °F 39.2 °F 44.6 °F 93% 30.06 in 1.8 mi South 18.4 mph 28.8 mph 0.01 in Rain Light Rain
2:15 PM 46.4 °F 38.7 °F 44.6 °F 93% 30.06 in 2.0 mi South 20.7 mph 25.3 mph 0.01 in Rain Light Rain
2:35 PM 46.4 °F 39.2 °F 46.4 °F 100% 30.06 in 2.0 mi South 18.4 mph 26.5 mph 0.01 in Rain Rain
2:55 PM 46.4 °F 39.8 °F 46.4 °F 100% 30.07 in 2.0 mi South 16.1 mph 23.0 mph 0.01 in Rain Light Rain
3:15 PM 46.4 °F 40.4 °F 46.4 °F 100% 30.07 in 2.0 mi South 13.8 mph 21.9 mph 0.01 in Rain Rain
3:35 PM 46.4 °F 39.8 °F 46.4 °F 100% 30.07 in 2.5 mi South 16.1 mph - 0.01 in   Drizzle
3:55 PM 46.4 °F 39.2 °F 46.4 °F 100% 30.07 in 3.0 mi South 18.4 mph 21.9 mph 0.01 in   Light Drizzle
4:15 PM 46.4 °F 39.2 °F 46.4 °F 100% 30.07 in 1.8 mi South 18.4 mph 23.0 mph 0.03 in Rain Rain
4:35 PM 46.4 °F 39.8 °F 46.4 °F 100% 30.07 in 3.0 mi SSW 16.1 mph 21.9 mph 0.04 in Rain Rain
4:55 PM 46.4 °F 40.1 °F 46.4 °F 100% 30.07 in 1.5 mi South 15.0 mph - 0.07 in Rain Light Rain
5:15 PM 46.4 °F 40.1 °F 46.4 °F 100% 30.07 in 2.0 mi SSW 15.0 mph 21.9 mph N/A   Overcast
5:35 PM 46.4 °F 39.5 °F 46.4 °F 100% 30.08 in 2.0 mi SSW 17.3 mph 23.0 mph N/A   Overcast
5:55 PM 46.4 °F 40.1 °F 46.4 °F 100% 30.08 in 1.8 mi SSW 15.0 mph 23.0 mph N/A Rain Rain
6:15 PM 46.4 °F 39.8 °F 46.4 °F 100% 30.07 in 1.8 mi South 16.1 mph 21.9 mph N/A   Light Drizzle
6:35 PM 46.4 °F 40.1 °F 46.4 °F 100% 30.08 in 1.5 mi South 15.0 mph 24.2 mph N/A Rain Light Rain
6:55 PM 46.4 °F 40.1 °F 46.4 °F 100% 30.08 in 2.0 mi SSW 15.0 mph 19.6 mph N/A   Drizzle
7:15 PM 46.4 °F 40.4 °F 46.4 °F 100% 30.08 in 2.5 mi SSW 13.8 mph - 0.01 in   Light Drizzle
7:35 PM 46.4 °F 40.1 °F 46.4 °F 100% 30.08 in 4.0 mi SSW 15.0 mph 20.7 mph 0.01 in   Overcast
7:55 PM 46.4 °F 40.1 °F 46.4 °F 100% 30.08 in 5.0 mi South 15.0 mph - 0.01 in   Overcast
8:15 PM 46.4 °F 40.4 °F 46.4 °F 100% 30.09 in 2.5 mi South 13.8 mph 20.7 mph N/A   Overcast
8:35 PM 46.4 °F 39.5 °F 46.4 °F 100% 30.09 in 0.8 mi South 17.3 mph 20.7 mph N/A   Overcast
8:55 PM 46.4 °F 39.8 °F 46.4 °F 100% 30.09 in 1.0 mi South 16.1 mph - N/A Rain Light Rain
9:15 PM 46.4 °F 40.4 °F 46.4 °F 100% 30.10 in 1.5 mi SSW 13.8 mph - N/A   Light Drizzle
9:35 PM 48.2 °F - 48.2 °F 100% 30.10 in 1.0 mi South 16.1 mph 20.7 mph N/A   Overcast
9:55 PM 48.2 °F - 46.4 °F 93% 30.11 in 1.5 mi South 13.8 mph 20.7 mph N/A Rain Light Rain
10:15 PM 46.4 °F 39.8 °F 46.4 °F 100% 30.11 in 1.0 mi South 16.1 mph 23.0 mph 0.01 in   Overcast
10:35 PM 46.4 °F 39.8 °F 46.4 °F 100% 30.12 in 1.0 mi SSW 16.1 mph - 0.01 in   Light Drizzle
10:55 PM 46.4 °F 39.5 °F 46.4 °F 100% 30.12 in 1.0 mi SSW 17.3 mph - 0.01 in Rain Heavy Rain
11:15 PM 46.4 °F 40.1 °F 46.4 °F 100% 30.12 in 1.0 mi SSW 15.0 mph - 0.01 in   Light Drizzle
11:35 PM 46.4 °F 41.1 °F 46.4 °F 100% 30.12 in 1.0 mi SSW 11.5 mph - 0.01 in   Overcast
11:55 PM 46.4 °F 41.5 °F 46.4 °F 100% 30.12 in 1.0 mi South 10.4 mph - 0.01 in   Light Drizzle